Location: Unspecified
(64.9000°N, 0.0000°E)
Time: 17:10:16
(UTC+00:00)

Transit 2A Rocket - Pass Details

Date: 22 June 2019
Orbit: 588 x 915 km, 66.7° (Epoch: 16 July)

Event Time Altitude Azimuth Distance (km) Brightness Sun altitude
Rises 08:53:06 0° 153° (SSE) 3,540 9.1 38.6°
Reaches altitude 10° 08:57:27 10° 124° (SE) 2,574 9.0 39.0°
Maximum altitude 08:59:31 12° 104° (ESE) 2,419 8.7 39.2°
Drops below altitude 10° 09:01:34 10° 83° (E) 2,532 8.5 39.4°
Sets 09:05:44 0° 54° (NE) 3,408 8.6 39.8°
